Richmond Hanover County, VA

7:13 PM EDT on June 20, 2018 (GMT -0400)
Hanover County Municipal

Weather History for KOFP - August, 2017

Change the Weather History Date:

Saturday, August 12, 2017

  Actual Average Record
Temperature  
Mean Temperature 78 °F -  
Max Temperature 86 °F 84 °F 100 °F (2002)
Min Temperature 73 °F 64 °F 45 °F (1954)
Cooling Degree Days 14    
Growing Degree Days 28 (Base 50)    
Moisture  
Dew Point 71 °F    
Average Humidity 80    
Maximum Humidity 91    
Minimum Humidity 63    
Precipitation  
Precipitation 0.19 in - - ()
Sea Level Pressure  
Sea Level Pressure 29.93 in    
Wind  
Wind Speed 5 mph (South)    
Max Wind Speed 8 mph    
Max Gust Speed -    
Visibility 9 miles    
Events Rain    
Averages and records for this station are not official NWS values.
T = Trace of Precipitation, MM = Missing Value Source: NWS Daily Summary

Daily Weather History Graph

Daily Weather History Graph

Search for Another Location

Airport or City:

Astronomy

Aug. 12, 2017 Rise Set
Actual Time 6:23 AM EDT 8:05 PM EDT
Civil Twilight 5:54 AM EDT 8:33 PM EDT
Nautical Twilight 5:20 AM EDT 9:07 PM EDT
Astronomical Twilight 4:44 AM EDT 9:43 PM EDT
Moon 11:08 PM EDT (8/12) 11:10 AM EDT (8/12)
Length of Visible Light 14h 39m
Length of Day
13h 42m
Waning Gibbous, 75% of the Moon is Illuminated
Aug 12
Waning Gibbous
Aug 14
Last Quarter
Aug 21
New
Aug 29
First Quarter
Sep 6
Full

Hourly Weather History & Observations

Time (EDT) Temp. Heat Index Dew Point Humidity Pressure Visibility Wind Dir Wind Speed Gust Speed Precip Events Conditions
12:46 AM 77.0 °F - 73.0 °F 88% 29.98 in 10.0 mi South 6.9 mph - 0.02 in   Overcast
12:54 AM 77.0 °F - 73.0 °F 88% 29.98 in 10.0 mi South 6.9 mph - 0.02 in   Mostly Cloudy
1:09 AM 75.9 °F - 73.0 °F 91% 29.98 in 10.0 mi South 5.8 mph - N/A   Mostly Cloudy
1:54 AM 75.9 °F - 73.0 °F 91% 29.97 in 10.0 mi South 5.8 mph - N/A   Partly Cloudy
2:54 AM 75.9 °F - 72.0 °F 87% 29.96 in 9.0 mi South 4.6 mph - N/A   Mostly Cloudy
3:54 AM 75.9 °F - 72.0 °F 87% 29.95 in 8.0 mi South 4.6 mph - 0.00 in   Overcast
4:54 AM 75.0 °F - 72.0 °F 90% 29.96 in 9.0 mi South 4.6 mph - 0.00 in   Overcast
5:54 AM 75.0 °F - 72.0 °F 90% 29.96 in 8.0 mi South 5.8 mph - 0.00 in   Overcast
6:54 AM 75.0 °F - 71.1 °F 87% 29.97 in 10.0 mi South 5.8 mph - 0.01 in   Overcast
7:54 AM 73.9 °F - 70.0 °F 87% 29.98 in 4.0 mi South 5.8 mph - 0.03 in Rain Rain
8:07 AM 73.9 °F - 70.0 °F 87% 29.98 in 3.0 mi SSW 5.8 mph - 0.02 in Rain Rain
8:54 AM 73.0 °F - 70.0 °F 90% 29.97 in 6.0 mi SSE 5.8 mph - 0.09 in Rain Light Rain
9:45 AM 75.0 °F - 71.1 °F 87% 29.96 in 9.0 mi Calm Calm - 0.04 in   Overcast
9:54 AM 75.0 °F - 71.1 °F 87% 29.96 in 10.0 mi Calm Calm - 0.04 in   Mostly Cloudy
10:54 AM 77.0 °F - 71.1 °F 82% 29.96 in 10.0 mi South 5.8 mph - N/A   Mostly Cloudy
11:10 AM 77.0 °F - 71.1 °F 82% 29.96 in 10.0 mi South 6.9 mph - N/A   Mostly Cloudy
11:32 AM 78.1 °F - 71.1 °F 79% 29.97 in 10.0 mi South 8.1 mph - N/A   Overcast
11:54 AM 78.1 °F - 71.1 °F 79% 29.95 in 10.0 mi South 5.8 mph - N/A   Overcast
12:04 PM 78.1 °F - 70.0 °F 76% 29.96 in 10.0 mi SSW 4.6 mph - N/A   Overcast
12:26 PM 79.0 °F - 70.0 °F 74% 29.95 in 10.0 mi SW 5.8 mph - N/A   Overcast
12:36 PM 79.0 °F - 71.1 °F 77% 29.94 in 10.0 mi South 5.8 mph - N/A   Mostly Cloudy
12:54 PM 81.0 °F 84.4 °F 70.0 °F 69% 29.93 in 10.0 mi Calm Calm - N/A   Partly Cloudy
1:27 PM 81.0 °F 84.9 °F 71.1 °F 72% 29.93 in 10.0 mi Calm Calm - N/A   Mostly Cloudy
1:41 PM 82.0 °F 85.5 °F 69.1 °F 65% 29.93 in 10.0 mi SSW 4.6 mph - N/A   Scattered Clouds
1:54 PM 82.9 °F 87.5 °F 71.1 °F 67% 29.92 in 10.0 mi Variable 4.6 mph - N/A   Scattered Clouds
2:17 PM 82.0 °F 85.9 °F 70.0 °F 67% 29.92 in 10.0 mi Variable 5.8 mph - N/A   Overcast
2:29 PM 82.0 °F 86.3 °F 71.1 °F 69% 29.91 in 10.0 mi Variable 4.6 mph - N/A   Mostly Cloudy
2:54 PM 82.9 °F 87.5 °F 71.1 °F 67% 29.91 in 10.0 mi Variable 3.5 mph - N/A   Clear
3:54 PM 84.9 °F 90.7 °F 72.0 °F 65% 29.88 in 10.0 mi Variable 3.5 mph - 0.00 in   Partly Cloudy
4:54 PM 84.9 °F 90.1 °F 71.1 °F 63% 29.87 in 10.0 mi Calm Calm - N/A   Scattered Clouds
5:54 PM 84.0 °F 89.6 °F 72.0 °F 67% 29.87 in 10.0 mi Variable 3.5 mph - N/A   Partly Cloudy
6:54 PM 84.9 °F 91.4 °F 73.0 °F 67% 29.86 in 10.0 mi Calm Calm - N/A   Partly Cloudy
7:54 PM 82.0 °F 86.7 °F 72.0 °F 71% 29.87 in 10.0 mi Calm Calm - N/A   Mostly Cloudy
8:28 PM 79.0 °F - 73.9 °F 84% 29.88 in 10.0 mi SE 4.6 mph - N/A   Mostly Cloudy
8:41 PM 80.1 °F 83.8 °F 72.0 °F 76% 29.88 in 10.0 mi Variable 3.5 mph - N/A   Scattered Clouds
8:54 PM 79.0 °F - 73.0 °F 82% 29.88 in 10.0 mi Calm Calm - N/A   Partly Cloudy
9:54 PM 75.9 °F - 72.0 °F 87% 29.88 in 9.0 mi Calm Calm - N/A   Clear
10:54 PM 75.9 °F - 73.0 °F 91% 29.88 in 8.0 mi Calm Calm - N/A   Clear
11:54 PM 73.9 °F - 71.1 °F 91% 29.90 in 9.0 mi Calm Calm - N/A   Clear